SUR4729 SLLP-SPJC

Flight info

Callsign SUR4729
Flight time 2h 25m
Altitude 26000
Route KOMPA DCT OLGAS DCT SIMEL UT323 SCO
Aircraft B350/L-SBGRW/S

Departure

Time 2026-05-07 13:58
Airport El Alto International Airport (SLLP)

Arrival

Time 2026-05-07 16:23
Airport Jorge Chávez International Airport (SPJC)
Time Latitude Longitude Altitude Speed Heading
2026-05-07 13:30 -16.50934 -68.17799 13238 ft 0 kts 276°
2026-05-07 13:47 -16.50933 -68.17785 13238 ft 2 kts 229°
2026-05-07 13:47 -16.50930 -68.17783 13238 ft 0 kts 217°
2026-05-07 13:51 -16.50947 -68.17792 13240 ft 8 kts 196°
2026-05-07 13:51 -16.50992 -68.17779 13249 ft 4 kts 122°
2026-05-07 13:51 -16.51001 -68.17750 13254 ft 8 kts 111°
2026-05-07 13:51 -16.51028 -68.17695 13264 ft 7 kts 120°
2026-05-07 13:52 -16.51056 -68.17643 13273 ft 16 kts 123°
2026-05-07 13:52 -16.51132 -68.17550 13293 ft 18 kts 129°
2026-05-07 13:52 -16.51211 -68.17451 13313 ft 15 kts 129°
2026-05-07 13:52 -16.51272 -68.17383 13318 ft 12 kts 146°
2026-05-07 13:53 -16.51289 -68.17373 13321 ft 0 kts 155°
2026-05-07 13:56 -16.51296 -68.17370 13322 ft 3 kts 156°
2026-05-07 13:56 -16.51297 -68.17370 13322 ft 0 kts 156°
2026-05-07 13:56 -16.51341 -68.17361 13321 ft 14 kts 179°
2026-05-07 13:57 -16.51393 -68.17413 13320 ft 5 kts 269°
2026-05-07 13:57 -16.51393 -68.17428 13319 ft 14 kts 272°
2026-05-07 13:57 -16.51382 -68.17753 13301 ft 74 kts 272°
2026-05-07 13:57 -16.51357 -68.18474 13257 ft 123 kts 271°
2026-05-07 13:58 -16.51349 -68.19489 13404 ft 148 kts 270°
2026-05-07 13:58 -16.51389 -68.20578 14002 ft 158 kts 263°
2026-05-07 13:58 -16.51377 -68.21797 14384 ft 176 kts 279°
2026-05-07 13:58 -16.51087 -68.23043 14899 ft 180 kts 285°
2026-05-07 13:59 -16.50718 -68.24299 15426 ft 185 kts 284°
2026-05-07 13:59 -16.50434 -68.25616 15915 ft 187 kts 276°
2026-05-07 13:59 -16.50495 -68.26969 16366 ft 194 kts 260°
2026-05-07 13:59 -16.50766 -68.28382 16787 ft 200 kts 255°
2026-05-07 14:00 -16.51120 -68.29827 17141 ft 211 kts 259°
2026-05-07 14:00 -16.51175 -68.31383 17410 ft 220 kts 275°
2026-05-07 14:00 -16.50968 -68.32976 17886 ft 223 kts 277°
2026-05-07 14:00 -16.50775 -68.34615 18199 ft 230 kts 272°
2026-05-07 14:01 -16.50775 -68.36285 18522 ft 235 kts 265°
2026-05-07 14:01 -16.51065 -68.37979 18810 ft 240 kts 252°
2026-05-07 14:01 -16.51757 -68.39559 19112 ft 240 kts 236°
2026-05-07 14:01 -16.52922 -68.40806 19360 ft 245 kts 217°
2026-05-07 14:02 -16.54352 -68.41783 19531 ft 251 kts 211°
2026-05-07 14:02 -16.55838 -68.42744 19797 ft 252 kts 214°
2026-05-07 14:02 -16.57218 -68.43892 20036 ft 253 kts 222°
2026-05-07 14:02 -16.58543 -68.45108 20297 ft 253 kts 220°
2026-05-07 14:03 -16.59922 -68.46264 20551 ft 254 kts 218°
2026-05-07 14:03 -16.61333 -68.47402 20714 ft 258 kts 219°
2026-05-07 14:03 -16.62683 -68.48607 21000 ft 255 kts 222°
2026-05-07 14:03 -16.64010 -68.49848 21301 ft 253 kts 220°
2026-05-07 14:04 -16.65403 -68.50968 21462 ft 257 kts 217°
2026-05-07 14:04 -16.66754 -68.52202 21663 ft 257 kts 230°
2026-05-07 14:04 -16.67671 -68.53803 21862 ft 259 kts 249°
2026-05-07 14:04 -16.68011 -68.55639 22072 ft 262 kts 268°
2026-05-07 14:05 -16.67692 -68.57513 22223 ft 269 kts 289°
2026-05-07 14:05 -16.66717 -68.59216 22374 ft 275 kts 305°
2026-05-07 14:05 -16.65475 -68.60697 22691 ft 271 kts 311°
2026-05-07 14:05 -16.64206 -68.62080 23245 ft 257 kts 307°
2026-05-07 14:06 -16.63268 -68.63642 23533 ft 254 kts 291°
2026-05-07 14:06 -16.62602 -68.65342 23786 ft 254 kts 288°
2026-05-07 14:06 -16.61982 -68.67085 23998 ft 255 kts 287°
2026-05-07 14:06 -16.61295 -68.68798 24210 ft 257 kts 293°
2026-05-07 14:07 -16.60517 -68.70473 24382 ft 259 kts 291°
2026-05-07 14:07 -16.59781 -68.72192 24562 ft 260 kts 291°
2026-05-07 14:07 -16.59023 -68.73905 24734 ft 262 kts 292°
2026-05-07 14:07 -16.58256 -68.75633 24918 ft 262 kts 292°
2026-05-07 14:08 -16.57502 -68.77358 25094 ft 263 kts 292°
2026-05-07 14:08 -16.56734 -68.79092 25275 ft 263 kts 292°
2026-05-07 14:08 -16.55968 -68.80828 25459 ft 264 kts 292°
2026-05-07 14:08 -16.55202 -68.82566 25646 ft 264 kts 292°
2026-05-07 14:09 -16.54434 -68.84307 25826 ft 264 kts 292°
2026-05-07 14:09 -16.53665 -68.86051 26002 ft 264 kts 293°
2026-05-07 14:09 -16.52903 -68.87777 26111 ft 266 kts 293°
2026-05-07 14:09 -16.52115 -68.89559 26164 ft 271 kts 293°
2026-05-07 14:10 -16.51322 -68.91355 26195 ft 275 kts 293°
2026-05-07 14:10 -16.50516 -68.93178 26202 ft 279 kts 293°
2026-05-07 14:10 -16.49708 -68.95007 26208 ft 282 kts 293°
2026-05-07 14:10 -16.48894 -68.96886 26211 ft 285 kts 289°
2026-05-07 14:11 -16.48367 -68.98890 26217 ft 286 kts 280°
2026-05-07 14:11 -16.48016 -69.00919 26216 ft 288 kts 278°
2026-05-07 14:11 -16.47708 -69.02994 26216 ft 290 kts 277°
2026-05-07 14:11 -16.47419 -69.05074 26216 ft 291 kts 277°
2026-05-07 14:12 -16.47149 -69.07164 26215 ft 292 kts 274°
2026-05-07 14:12 -16.47073 -69.09285 26224 ft 293 kts 271°
2026-05-07 14:12 -16.46975 -69.11397 26216 ft 294 kts 273°
2026-05-07 14:12 -16.46864 -69.13523 26215 ft 295 kts 272°
2026-05-07 14:13 -16.46775 -69.15668 26215 ft 295 kts 272°
2026-05-07 14:13 -16.46667 -69.17800 26212 ft 296 kts 272°
2026-05-07 14:13 -16.46567 -69.19947 26216 ft 296 kts 272°
2026-05-07 14:13 -16.46467 -69.22096 26219 ft 296 kts 272°
2026-05-07 14:14 -16.46363 -69.24236 26216 ft 297 kts 272°
2026-05-07 14:14 -16.46264 -69.26388 26225 ft 297 kts 272°
2026-05-07 14:14 -16.46159 -69.28540 26225 ft 297 kts 272°
2026-05-07 14:14 -16.46056 -69.30694 26215 ft 298 kts 272°
2026-05-07 14:15 -16.45956 -69.32846 26220 ft 298 kts 272°
2026-05-07 14:15 -16.45850 -69.35003 26230 ft 297 kts 272°
2026-05-07 14:15 -16.45749 -69.37126 26228 ft 298 kts 272°
2026-05-07 14:15 -16.45646 -69.39278 26230 ft 298 kts 272°
2026-05-07 14:16 -16.45541 -69.41432 26231 ft 298 kts 272°
2026-05-07 14:16 -16.45438 -69.43593 26232 ft 298 kts 272°
2026-05-07 14:16 -16.45333 -69.45749 26233 ft 298 kts 272°
2026-05-07 14:16 -16.45228 -69.47897 26238 ft 297 kts 272°
2026-05-07 14:17 -16.45124 -69.50059 26240 ft 297 kts 272°
2026-05-07 14:17 -16.45018 -69.52218 26246 ft 297 kts 272°
2026-05-07 14:17 -16.44914 -69.54346 26248 ft 297 kts 272°
2026-05-07 14:17 -16.44810 -69.56497 26252 ft 297 kts 272°
2026-05-07 14:18 -16.44703 -69.58651 26256 ft 297 kts 272°
2026-05-07 14:18 -16.44599 -69.60795 26255 ft 298 kts 272°
2026-05-07 14:18 -16.44491 -69.62958 26256 ft 298 kts 272°
2026-05-07 14:18 -16.44387 -69.65100 26266 ft 297 kts 272°
2026-05-07 14:19 -16.44279 -69.67247 26260 ft 297 kts 272°
2026-05-07 14:19 -16.44173 -69.69400 26261 ft 297 kts 272°
2026-05-07 14:19 -16.44066 -69.71559 26270 ft 297 kts 272°
2026-05-07 14:19 -16.43960 -69.73697 26276 ft 297 kts 272°
2026-05-07 14:20 -16.43853 -69.75837 26281 ft 297 kts 272°
2026-05-07 14:20 -16.43745 -69.77999 26281 ft 297 kts 272°
2026-05-07 14:20 -16.43638 -69.80152 26286 ft 297 kts 272°
2026-05-07 14:20 -16.43530 -69.82285 26284 ft 298 kts 272°
2026-05-07 14:21 -16.43422 -69.84452 26289 ft 297 kts 272°
2026-05-07 14:21 -16.43313 -69.86604 26292 ft 297 kts 272°
2026-05-07 14:21 -16.43204 -69.88749 26297 ft 297 kts 272°
2026-05-07 14:21 -16.43096 -69.90896 26308 ft 297 kts 272°
2026-05-07 14:22 -16.42988 -69.93044 26316 ft 297 kts 272°
2026-05-07 14:22 -16.42879 -69.95170 26313 ft 298 kts 272°
2026-05-07 14:22 -16.42769 -69.97337 26320 ft 298 kts 272°
2026-05-07 14:22 -16.42658 -69.99500 26319 ft 298 kts 272°
2026-05-07 14:23 -16.42550 -70.01653 26324 ft 298 kts 272°
2026-05-07 14:23 -16.42438 -70.03804 26329 ft 297 kts 272°
2026-05-07 14:23 -16.42329 -70.05964 26338 ft 297 kts 272°
2026-05-07 14:23 -16.42219 -70.08108 26346 ft 297 kts 272°
2026-05-07 14:24 -16.42107 -70.10249 26349 ft 298 kts 272°
2026-05-07 14:24 -16.41997 -70.12407 26350 ft 298 kts 272°
2026-05-07 14:24 -16.41886 -70.14566 26355 ft 298 kts 272°
2026-05-07 14:24 -16.41773 -70.16719 26366 ft 298 kts 272°
2026-05-07 14:25 -16.41661 -70.18862 26368 ft 298 kts 272°
2026-05-07 14:25 -16.41549 -70.21033 26365 ft 298 kts 272°
2026-05-07 14:25 -16.41437 -70.23190 26375 ft 298 kts 272°
2026-05-07 14:25 -16.41324 -70.25350 26378 ft 297 kts 272°
2026-05-07 14:26 -16.41212 -70.27495 26383 ft 297 kts 272°
2026-05-07 14:26 -16.41099 -70.29651 26383 ft 298 kts 272°
2026-05-07 14:26 -16.40986 -70.31790 26382 ft 297 kts 272°
2026-05-07 14:26 -16.40874 -70.33927 26390 ft 297 kts 272°
2026-05-07 14:27 -16.40761 -70.36083 26395 ft 297 kts 272°
2026-05-07 14:27 -16.40645 -70.38245 26394 ft 297 kts 272°
2026-05-07 14:27 -16.40535 -70.40369 26402 ft 297 kts 272°
2026-05-07 14:27 -16.40418 -70.42543 26400 ft 298 kts 272°
2026-05-07 14:28 -16.40306 -70.44676 26394 ft 298 kts 272°
2026-05-07 14:28 -16.40191 -70.46839 26401 ft 297 kts 272°
2026-05-07 14:28 -16.40075 -70.48997 26402 ft 297 kts 272°
2026-05-07 14:28 -16.39961 -70.51130 26401 ft 297 kts 272°
2026-05-07 14:29 -16.39845 -70.53284 26399 ft 297 kts 272°
2026-05-07 14:29 -16.39731 -70.55436 26413 ft 297 kts 272°
2026-05-07 14:29 -16.39614 -70.57594 26405 ft 298 kts 272°
2026-05-07 14:29 -16.39499 -70.59726 26406 ft 298 kts 272°
2026-05-07 14:30 -16.39423 -70.61163 26406 ft 298 kts 272°
2026-05-07 14:30 -16.39305 -70.63334 26405 ft 298 kts 272°
2026-05-07 14:30 -16.39189 -70.65469 26407 ft 298 kts 272°
2026-05-07 14:30 -16.39072 -70.67641 26405 ft 298 kts 272°
2026-05-07 14:31 -16.38955 -70.69796 26407 ft 298 kts 272°
2026-05-07 14:31 -16.38837 -70.71931 26416 ft 298 kts 272°
2026-05-07 14:31 -16.38700 -70.74072 26415 ft 298 kts 274°
2026-05-07 14:31 -16.38547 -70.76236 26406 ft 298 kts 270°
2026-05-07 14:32 -16.38541 -70.78389 26407 ft 297 kts 271°
2026-05-07 14:32 -16.38471 -70.80539 26418 ft 297 kts 271°
2026-05-07 14:32 -16.38426 -70.82688 26419 ft 297 kts 270°
2026-05-07 14:32 -16.38380 -70.84851 26420 ft 298 kts 271°
2026-05-07 14:33 -16.38325 -70.86999 26411 ft 298 kts 271°
2026-05-07 14:33 -16.38278 -70.89154 26413 ft 297 kts 271°
2026-05-07 14:33 -16.38227 -70.91294 26417 ft 296 kts 271°
2026-05-07 14:33 -16.38175 -70.93447 26421 ft 296 kts 271°
2026-05-07 14:34 -16.38125 -70.95591 26417 ft 296 kts 271°
2026-05-07 14:34 -16.38075 -70.97724 26427 ft 295 kts 271°
2026-05-07 14:34 -16.38023 -70.99858 26428 ft 295 kts 271°
2026-05-07 14:34 -16.37972 -71.02008 26434 ft 296 kts 271°
2026-05-07 14:35 -16.37921 -71.04150 26425 ft 296 kts 271°
2026-05-07 14:35 -16.37869 -71.06270 26425 ft 296 kts 271°
2026-05-07 14:35 -16.37818 -71.08419 26434 ft 296 kts 271°
2026-05-07 14:35 -16.37764 -71.10561 26427 ft 296 kts 271°
2026-05-07 14:36 -16.37712 -71.12699 26427 ft 296 kts 271°
2026-05-07 14:36 -16.37660 -71.14860 26427 ft 296 kts 271°
2026-05-07 14:36 -16.37607 -71.16995 26430 ft 296 kts 271°
2026-05-07 14:36 -16.37554 -71.19135 26427 ft 296 kts 271°
2026-05-07 14:37 -16.37500 -71.21277 26426 ft 296 kts 271°
2026-05-07 14:37 -16.37393 -71.25561 26415 ft 296 kts 271°
2026-05-07 14:37 -16.37339 -71.27704 26415 ft 296 kts 271°
2026-05-07 14:38 -16.37284 -71.29852 26417 ft 296 kts 271°
2026-05-07 14:38 -16.37232 -71.31979 26416 ft 297 kts 271°
2026-05-07 14:38 -16.37175 -71.34129 26413 ft 297 kts 271°
2026-05-07 14:38 -16.37121 -71.36297 26408 ft 298 kts 271°
2026-05-07 14:39 -16.37065 -71.38443 26402 ft 298 kts 271°
2026-05-07 14:39 -16.37009 -71.40603 26398 ft 298 kts 271°
2026-05-07 14:39 -16.36953 -71.42770 26400 ft 298 kts 271°
2026-05-07 14:39 -16.36897 -71.44938 26402 ft 298 kts 271°
2026-05-07 14:40 -16.36841 -71.47064 26399 ft 298 kts 271°
2026-05-07 14:40 -16.36784 -71.49243 26399 ft 298 kts 271°
2026-05-07 14:40 -16.36728 -71.51380 26401 ft 298 kts 271°
2026-05-07 14:40 -16.36671 -71.53561 26400 ft 298 kts 271°
2026-05-07 14:41 -16.36613 -71.55700 26398 ft 298 kts 271°
2026-05-07 14:41 -16.36557 -71.57851 26401 ft 298 kts 271°
2026-05-07 14:41 -16.36499 -71.60020 26403 ft 298 kts 271°
2026-05-07 14:41 -16.36441 -71.62157 26398 ft 298 kts 271°
2026-05-07 14:42 -16.36383 -71.64312 26399 ft 298 kts 271°
2026-05-07 14:42 -16.36325 -71.66474 26398 ft 297 kts 271°
2026-05-07 14:42 -16.36266 -71.68640 26397 ft 297 kts 271°
2026-05-07 14:42 -16.36208 -71.70792 26388 ft 297 kts 271°
2026-05-07 14:43 -16.36149 -71.72926 26387 ft 297 kts 271°
2026-05-07 14:43 -16.36090 -71.75081 26377 ft 297 kts 271°
2026-05-07 14:43 -16.36030 -71.77247 26373 ft 297 kts 271°
2026-05-07 14:43 -16.35971 -71.79382 26364 ft 297 kts 271°
2026-05-07 14:44 -16.35912 -71.81540 26360 ft 297 kts 271°
2026-05-07 14:44 -16.35852 -71.83695 26348 ft 297 kts 271°
2026-05-07 14:44 -16.35791 -71.85854 26336 ft 297 kts 271°
2026-05-07 14:44 -16.35732 -71.87985 26332 ft 297 kts 271°
2026-05-07 14:45 -16.35671 -71.90148 26321 ft 297 kts 271°
2026-05-07 14:45 -16.35610 -71.92301 26311 ft 297 kts 271°
2026-05-07 14:45 -16.35549 -71.94456 26298 ft 297 kts 271°
2026-05-07 14:45 -16.35488 -71.96593 26295 ft 296 kts 271°
2026-05-07 14:46 -16.35427 -71.98744 26288 ft 296 kts 271°
2026-05-07 14:46 -16.35365 -72.00878 26288 ft 296 kts 271°
2026-05-07 14:46 -16.35304 -72.03028 26286 ft 296 kts 271°
2026-05-07 14:46 -16.35242 -72.05174 26281 ft 296 kts 271°
2026-05-07 14:47 -16.35179 -72.07321 26280 ft 296 kts 271°
2026-05-07 14:47 -16.35118 -72.09442 26279 ft 296 kts 271°
2026-05-07 14:47 -16.35056 -72.11577 26277 ft 296 kts 271°
2026-05-07 14:47 -16.34993 -72.13734 26270 ft 296 kts 271°
2026-05-07 14:48 -16.34929 -72.15889 26271 ft 296 kts 271°
2026-05-07 14:48 -16.34866 -72.18039 26266 ft 296 kts 271°
2026-05-07 14:48 -16.34804 -72.20157 26260 ft 297 kts 271°
2026-05-07 14:48 -16.34739 -72.22307 26259 ft 297 kts 271°
2026-05-07 14:49 -16.34676 -72.24466 26253 ft 297 kts 271°
2026-05-07 14:49 -16.34611 -72.26618 26255 ft 297 kts 271°
2026-05-07 14:49 -16.34547 -72.28761 26251 ft 297 kts 271°
2026-05-07 14:49 -16.34482 -72.30909 26244 ft 297 kts 271°
2026-05-07 14:50 -16.34417 -72.33067 26245 ft 297 kts 271°
2026-05-07 14:50 -16.34352 -72.35226 26236 ft 297 kts 271°
2026-05-07 14:50 -16.34286 -72.37363 26236 ft 296 kts 271°
2026-05-07 14:50 -16.34222 -72.39521 26235 ft 296 kts 271°
2026-05-07 14:51 -16.34157 -72.41642 26236 ft 296 kts 271°
2026-05-07 14:51 -16.34090 -72.43780 26230 ft 296 kts 271°
2026-05-07 14:51 -16.34025 -72.45925 26234 ft 296 kts 271°
2026-05-07 14:51 -16.33902 -72.48067 26232 ft 296 kts 278°
2026-05-07 14:52 -16.33326 -72.50125 26232 ft 298 kts 291°
2026-05-07 14:52 -16.32432 -72.52079 26215 ft 299 kts 296°
2026-05-07 14:52 -16.31444 -72.53992 26219 ft 299 kts 297°
2026-05-07 14:52 -16.30423 -72.55885 26220 ft 299 kts 298°
2026-05-07 14:53 -16.29394 -72.57747 26211 ft 299 kts 298°
2026-05-07 14:53 -16.28256 -72.59557 26215 ft 300 kts 305°
2026-05-07 14:53 -16.26999 -72.61307 26211 ft 299 kts 303°
2026-05-07 14:53 -16.25824 -72.63070 26214 ft 299 kts 303°
2026-05-07 14:54 -16.24599 -72.64828 26219 ft 300 kts 304°
2026-05-07 14:54 -16.23393 -72.66590 26209 ft 300 kts 303°
2026-05-07 14:54 -16.22175 -72.68368 26209 ft 300 kts 304°
2026-05-07 14:54 -16.20960 -72.70128 26208 ft 300 kts 303°
2026-05-07 14:55 -16.19751 -72.71893 26203 ft 300 kts 303°
2026-05-07 14:55 -16.18527 -72.73670 26206 ft 300 kts 303°
2026-05-07 14:55 -16.17304 -72.75450 26197 ft 301 kts 303°
2026-05-07 14:55 -16.16093 -72.77210 26200 ft 301 kts 303°
2026-05-07 14:56 -16.14867 -72.78991 26194 ft 301 kts 303°
2026-05-07 14:56 -16.13662 -72.80742 26197 ft 300 kts 303°
2026-05-07 14:56 -16.12440 -72.82516 26199 ft 301 kts 303°
2026-05-07 14:56 -16.11228 -72.84278 26201 ft 301 kts 303°
2026-05-07 14:57 -16.10005 -72.86052 26190 ft 301 kts 304°
2026-05-07 14:57 -16.08779 -72.87833 26185 ft 301 kts 304°
2026-05-07 14:57 -16.07554 -72.89609 26189 ft 301 kts 304°
2026-05-07 14:57 -16.06334 -72.91378 26185 ft 301 kts 303°
2026-05-07 14:58 -16.05119 -72.93143 26181 ft 301 kts 304°
2026-05-07 14:58 -16.03891 -72.94921 26178 ft 301 kts 304°
2026-05-07 14:58 -16.02677 -72.96683 26172 ft 301 kts 304°
2026-05-07 14:58 -16.01462 -72.98442 26171 ft 301 kts 304°
2026-05-07 14:59 -16.00239 -73.00215 26169 ft 301 kts 304°
2026-05-07 14:59 -15.99014 -73.01988 26167 ft 301 kts 304°
2026-05-07 14:59 -15.97800 -73.03745 26168 ft 301 kts 304°
2026-05-07 14:59 -15.96574 -73.05524 26165 ft 301 kts 304°
2026-05-07 15:00 -15.95355 -73.07286 26162 ft 302 kts 304°
2026-05-07 15:00 -15.94123 -73.09067 26152 ft 302 kts 304°
2026-05-07 15:00 -15.92912 -73.10823 26154 ft 302 kts 304°
2026-05-07 15:00 -15.91688 -73.12591 26149 ft 302 kts 304°
2026-05-07 15:01 -15.90452 -73.14379 26137 ft 302 kts 304°
2026-05-07 15:01 -15.89227 -73.16149 26140 ft 301 kts 304°
2026-05-07 15:01 -15.88009 -73.17912 26138 ft 301 kts 304°
2026-05-07 15:01 -15.86793 -73.19665 26135 ft 301 kts 304°
2026-05-07 15:02 -15.85572 -73.21430 26131 ft 301 kts 304°
2026-05-07 15:02 -15.84341 -73.23209 26126 ft 301 kts 304°
2026-05-07 15:02 -15.83128 -73.24960 26127 ft 300 kts 304°
2026-05-07 15:02 -15.81908 -73.26723 26125 ft 300 kts 304°
2026-05-07 15:03 -15.80685 -73.28485 26124 ft 300 kts 304°
2026-05-07 15:03 -15.79463 -73.30249 26126 ft 301 kts 304°
2026-05-07 15:03 -15.78237 -73.32021 26118 ft 301 kts 304°
2026-05-07 15:03 -15.77013 -73.33783 26117 ft 302 kts 304°
2026-05-07 15:04 -15.75785 -73.35554 26109 ft 303 kts 304°
2026-05-07 15:04 -15.74553 -73.37331 26112 ft 303 kts 304°
2026-05-07 15:04 -15.73326 -73.39097 26117 ft 303 kts 304°
2026-05-07 15:04 -15.72099 -73.40869 26105 ft 303 kts 304°
2026-05-07 15:05 -15.70859 -73.42653 26114 ft 303 kts 304°
2026-05-07 15:05 -15.70044 -73.43826 26114 ft 302 kts 304°
2026-05-07 15:05 -15.68818 -73.45592 26110 ft 302 kts 304°
2026-05-07 15:05 -15.67173 -73.47961 26109 ft 302 kts 304°
2026-05-07 15:06 -15.66350 -73.49143 26112 ft 302 kts 304°
2026-05-07 15:06 -15.65114 -73.50924 26110 ft 303 kts 304°
2026-05-07 15:06 -15.63893 -73.52680 26111 ft 302 kts 304°
2026-05-07 15:06 -15.62662 -73.54449 26112 ft 303 kts 304°
2026-05-07 15:07 -15.61425 -73.56231 26107 ft 302 kts 304°
2026-05-07 15:07 -15.60191 -73.58003 26110 ft 302 kts 304°
2026-05-07 15:07 -15.58968 -73.59760 26117 ft 302 kts 304°
2026-05-07 15:07 -15.57729 -73.61542 26116 ft 302 kts 304°
2026-05-07 15:08 -15.56504 -73.63300 26119 ft 302 kts 304°
2026-05-07 15:08 -15.55273 -73.65069 26125 ft 302 kts 304°
2026-05-07 15:08 -15.54044 -73.66834 26128 ft 303 kts 304°
2026-05-07 15:08 -15.52813 -73.68601 26130 ft 303 kts 304°
2026-05-07 15:09 -15.51578 -73.70373 26131 ft 303 kts 304°
2026-05-07 15:09 -15.50341 -73.72147 26131 ft 303 kts 304°
2026-05-07 15:09 -15.49107 -73.73920 26140 ft 303 kts 304°
2026-05-07 15:09 -15.47867 -73.75698 26137 ft 303 kts 304°
2026-05-07 15:10 -15.46628 -73.77471 26144 ft 303 kts 304°
2026-05-07 15:10 -15.45391 -73.79248 26136 ft 304 kts 304°
2026-05-07 15:10 -15.44164 -73.81006 26139 ft 303 kts 304°
2026-05-07 15:10 -15.42924 -73.82782 26144 ft 304 kts 304°
2026-05-07 15:11 -15.41682 -73.84560 26145 ft 304 kts 304°
2026-05-07 15:11 -15.40445 -73.86337 26138 ft 304 kts 304°
2026-05-07 15:11 -15.39206 -73.88107 26150 ft 304 kts 304°
2026-05-07 15:11 -15.37961 -73.89890 26148 ft 305 kts 304°
2026-05-07 15:12 -15.36715 -73.91673 26142 ft 305 kts 304°
2026-05-07 15:12 -15.35480 -73.93439 26147 ft 305 kts 304°
2026-05-07 15:12 -15.34234 -73.95223 26156 ft 305 kts 304°
2026-05-07 15:12 -15.32984 -73.97011 26153 ft 306 kts 304°
2026-05-07 15:13 -15.31726 -73.98809 26153 ft 307 kts 304°
2026-05-07 15:13 -15.30487 -74.00579 26143 ft 306 kts 304°
2026-05-07 15:13 -15.29238 -74.02367 26154 ft 307 kts 304°
2026-05-07 15:13 -15.27981 -74.04161 26150 ft 306 kts 304°
2026-05-07 15:14 -15.26725 -74.05956 26154 ft 307 kts 304°
2026-05-07 15:14 -15.25472 -74.07746 26149 ft 307 kts 304°
2026-05-07 15:14 -15.24214 -74.09542 26154 ft 307 kts 304°
2026-05-07 15:14 -15.22966 -74.11323 26145 ft 307 kts 304°
2026-05-07 15:15 -15.21712 -74.13114 26156 ft 307 kts 304°
2026-05-07 15:15 -15.20449 -74.14913 26155 ft 307 kts 304°
2026-05-07 15:15 -15.19207 -74.16687 26160 ft 307 kts 304°
2026-05-07 15:15 -15.17945 -74.18488 26151 ft 307 kts 304°
2026-05-07 15:16 -15.16687 -74.20279 26151 ft 307 kts 304°
2026-05-07 15:16 -15.15435 -74.22064 26158 ft 307 kts 304°
2026-05-07 15:16 -15.14183 -74.23852 26156 ft 307 kts 304°
2026-05-07 15:16 -15.12927 -74.25638 26155 ft 306 kts 304°
2026-05-07 15:17 -15.11674 -74.27425 26154 ft 306 kts 304°
2026-05-07 15:17 -15.10427 -74.29200 26157 ft 306 kts 304°
2026-05-07 15:17 -15.09169 -74.30976 26166 ft 306 kts 306°
2026-05-07 15:17 -15.07824 -74.32700 26166 ft 306 kts 308°
2026-05-07 15:18 -15.06446 -74.34385 26162 ft 307 kts 309°
2026-05-07 15:18 -15.05061 -74.36043 26158 ft 307 kts 310°
2026-05-07 15:18 -15.03529 -74.37587 26170 ft 307 kts 316°
2026-05-07 15:18 -15.01976 -74.39104 26163 ft 307 kts 313°
2026-05-07 15:19 -15.00456 -74.40644 26170 ft 307 kts 315°
2026-05-07 15:19 -14.98897 -74.42176 26171 ft 307 kts 314°
2026-05-07 15:19 -14.97353 -74.43721 26172 ft 307 kts 314°
2026-05-07 15:19 -14.95828 -74.45236 26171 ft 307 kts 314°
2026-05-07 15:20 -14.94275 -74.46778 26184 ft 307 kts 314°
2026-05-07 15:20 -14.92734 -74.48312 26184 ft 307 kts 314°
2026-05-07 15:20 -14.91213 -74.49822 26184 ft 307 kts 314°
2026-05-07 15:20 -14.89660 -74.51364 26183 ft 307 kts 314°
2026-05-07 15:21 -14.88117 -74.52899 26189 ft 307 kts 314°
2026-05-07 15:21 -14.86569 -74.54434 26187 ft 307 kts 315°
2026-05-07 15:21 -14.85044 -74.55949 26191 ft 307 kts 314°
2026-05-07 15:21 -14.83505 -74.57477 26197 ft 307 kts 315°
2026-05-07 15:22 -14.81959 -74.59010 26199 ft 307 kts 314°
2026-05-07 15:22 -14.80429 -74.60530 26201 ft 307 kts 314°
2026-05-07 15:22 -14.78883 -74.62062 26201 ft 307 kts 314°
2026-05-07 15:22 -14.77337 -74.63596 26203 ft 307 kts 315°
2026-05-07 15:23 -14.75808 -74.65112 26205 ft 307 kts 314°
2026-05-07 15:23 -14.74270 -74.66636 26209 ft 307 kts 315°
2026-05-07 15:23 -14.72736 -74.68157 26206 ft 307 kts 314°
2026-05-07 15:23 -14.71187 -74.69692 26208 ft 307 kts 315°
2026-05-07 15:24 -14.69643 -74.71220 26203 ft 307 kts 315°
2026-05-07 15:24 -14.68118 -74.72732 26205 ft 307 kts 315°
2026-05-07 15:24 -14.66558 -74.74275 26206 ft 307 kts 315°
2026-05-07 15:24 -14.65015 -74.75805 26203 ft 307 kts 315°
2026-05-07 15:25 -14.63486 -74.77319 26207 ft 307 kts 315°
2026-05-07 15:25 -14.61923 -74.78864 26207 ft 308 kts 315°
2026-05-07 15:25 -14.60388 -74.80385 26215 ft 308 kts 315°
2026-05-07 15:25 -14.58833 -74.81922 26204 ft 309 kts 315°
2026-05-07 15:26 -14.57286 -74.83452 26201 ft 309 kts 315°
2026-05-07 15:26 -14.55737 -74.84985 26200 ft 309 kts 315°
2026-05-07 15:26 -14.54182 -74.86522 26202 ft 309 kts 315°
2026-05-07 15:26 -14.52615 -74.88071 26201 ft 309 kts 315°
2026-05-07 15:27 -14.51079 -74.89588 26201 ft 309 kts 315°
2026-05-07 15:27 -14.49529 -74.91121 26204 ft 309 kts 315°
2026-05-07 15:27 -14.47967 -74.92663 26203 ft 309 kts 315°
2026-05-07 15:27 -14.46418 -74.94195 26201 ft 309 kts 315°
2026-05-07 15:28 -14.44853 -74.95738 26198 ft 310 kts 315°
2026-05-07 15:28 -14.43295 -74.97277 26198 ft 309 kts 315°
2026-05-07 15:28 -14.41749 -74.98803 26198 ft 309 kts 315°
2026-05-07 15:28 -14.40199 -75.00332 26198 ft 309 kts 315°
2026-05-07 15:29 -14.38644 -75.01866 26201 ft 309 kts 315°
2026-05-07 15:29 -14.37089 -75.03402 26199 ft 309 kts 315°
2026-05-07 15:29 -14.35543 -75.04926 26201 ft 309 kts 315°
2026-05-07 15:29 -14.33978 -75.06467 26202 ft 309 kts 315°
2026-05-07 15:30 -14.32434 -75.07992 26199 ft 308 kts 315°
2026-05-07 15:30 -14.30900 -75.09503 26211 ft 308 kts 315°
2026-05-07 15:30 -14.29332 -75.11049 26214 ft 308 kts 315°
2026-05-07 15:30 -14.27781 -75.12576 26208 ft 309 kts 315°
2026-05-07 15:31 -14.26230 -75.14106 26208 ft 309 kts 315°
2026-05-07 15:31 -14.24681 -75.15629 26210 ft 308 kts 315°
2026-05-07 15:31 -14.23124 -75.17164 26212 ft 309 kts 315°
2026-05-07 15:31 -14.21585 -75.18680 26209 ft 309 kts 315°
2026-05-07 15:32 -14.20031 -75.20207 26207 ft 309 kts 315°
2026-05-07 15:32 -14.18475 -75.21740 26206 ft 309 kts 315°
2026-05-07 15:32 -14.16916 -75.23274 26199 ft 308 kts 315°
2026-05-07 15:32 -14.15366 -75.24797 26206 ft 308 kts 315°
2026-05-07 15:33 -14.13820 -75.26320 26203 ft 308 kts 315°
2026-05-07 15:33 -14.12260 -75.27853 26201 ft 308 kts 315°
2026-05-07 15:33 -14.10722 -75.29364 26191 ft 308 kts 315°
2026-05-07 15:33 -14.09168 -75.30892 26194 ft 308 kts 315°
2026-05-07 15:34 -14.07618 -75.32416 26200 ft 308 kts 315°
2026-05-07 15:34 -14.06070 -75.33937 26197 ft 308 kts 315°
2026-05-07 15:34 -14.04525 -75.35454 26194 ft 309 kts 315°
2026-05-07 15:34 -14.02966 -75.36985 26190 ft 309 kts 315°
2026-05-07 15:35 -14.01402 -75.38522 26175 ft 309 kts 315°
2026-05-07 15:35 -13.99835 -75.40058 26181 ft 309 kts 315°
2026-05-07 15:35 -13.98294 -75.41573 26179 ft 309 kts 315°
2026-05-07 15:35 -13.96737 -75.43100 26181 ft 309 kts 315°
2026-05-07 15:36 -13.95181 -75.44627 26177 ft 309 kts 315°
2026-05-07 15:36 -13.93621 -75.46158 26171 ft 309 kts 315°
2026-05-07 15:36 -13.92055 -75.47693 26169 ft 309 kts 315°
2026-05-07 15:36 -13.90502 -75.49216 26161 ft 309 kts 315°
2026-05-07 15:37 -13.88949 -75.50738 26167 ft 309 kts 315°
2026-05-07 15:37 -13.87396 -75.52262 26163 ft 309 kts 315°
2026-05-07 15:37 -13.85829 -75.53796 26156 ft 309 kts 315°
2026-05-07 15:37 -13.84288 -75.55307 26155 ft 308 kts 315°
2026-05-07 15:38 -13.82736 -75.56827 26157 ft 308 kts 315°
2026-05-07 15:38 -13.81172 -75.58359 26152 ft 308 kts 315°
2026-05-07 15:38 -13.79620 -75.59878 26148 ft 309 kts 315°
2026-05-07 15:38 -13.78064 -75.61403 26145 ft 308 kts 315°
2026-05-07 15:39 -13.76506 -75.62927 26145 ft 309 kts 315°
2026-05-07 15:39 -13.74949 -75.64452 26142 ft 309 kts 315°
2026-05-07 15:39 -13.73406 -75.65962 26134 ft 309 kts 315°
2026-05-07 15:39 -13.71837 -75.67496 26136 ft 309 kts 315°
2026-05-07 15:40 -13.70276 -75.69023 26130 ft 309 kts 315°
2026-05-07 15:40 -13.68731 -75.70535 26127 ft 309 kts 315°
2026-05-07 15:40 -13.67172 -75.72058 26124 ft 309 kts 315°
2026-05-07 15:40 -13.65606 -75.73589 26121 ft 309 kts 315°
2026-05-07 15:41 -13.64053 -75.75108 26115 ft 309 kts 315°
2026-05-07 15:41 -13.62480 -75.76645 26116 ft 309 kts 315°
2026-05-07 15:41 -13.60924 -75.78165 26110 ft 309 kts 315°
2026-05-07 15:41 -13.59896 -75.79169 26111 ft 309 kts 315°
2026-05-07 15:42 -13.57810 -75.81206 26110 ft 309 kts 315°
2026-05-07 15:42 -13.56779 -75.82213 26110 ft 309 kts 315°
2026-05-07 15:42 -13.55204 -75.83751 26110 ft 309 kts 315°
2026-05-07 15:42 -13.53650 -75.85268 26112 ft 309 kts 315°
2026-05-07 15:43 -13.52096 -75.86785 26110 ft 309 kts 315°
2026-05-07 15:43 -13.50533 -75.88309 26107 ft 309 kts 315°
2026-05-07 15:43 -13.48969 -75.89836 26110 ft 309 kts 315°
2026-05-07 15:43 -13.47422 -75.91345 26106 ft 309 kts 315°
2026-05-07 15:44 -13.45845 -75.92882 26106 ft 309 kts 315°
2026-05-07 15:44 -13.44289 -75.94400 26106 ft 309 kts 315°
2026-05-07 15:44 -13.42720 -75.95929 26105 ft 309 kts 315°
2026-05-07 15:44 -13.41160 -75.97450 26103 ft 309 kts 315°
2026-05-07 15:45 -13.39598 -75.98972 26100 ft 309 kts 315°
2026-05-07 15:45 -13.38051 -76.00479 26101 ft 309 kts 315°
2026-05-07 15:45 -13.36483 -76.02006 26099 ft 309 kts 315°
2026-05-07 15:45 -13.34921 -76.03527 26097 ft 310 kts 315°
2026-05-07 15:46 -13.31805 -76.06562 26094 ft 310 kts 315°
2026-05-07 15:46 -13.30221 -76.08104 26091 ft 309 kts 315°
2026-05-07 15:46 -13.28676 -76.09607 26088 ft 309 kts 315°
2026-05-07 15:47 -13.27106 -76.11135 26089 ft 309 kts 315°
2026-05-07 15:47 -13.25537 -76.12661 26085 ft 309 kts 315°
2026-05-07 15:47 -13.23974 -76.14182 26084 ft 309 kts 315°
2026-05-07 15:47 -13.22428 -76.15685 26080 ft 309 kts 315°
2026-05-07 15:48 -13.20868 -76.17202 26081 ft 309 kts 315°
2026-05-07 15:48 -13.19293 -76.18733 26079 ft 309 kts 315°
2026-05-07 15:48 -13.17730 -76.20252 26076 ft 309 kts 315°
2026-05-07 15:48 -13.16162 -76.21777 26075 ft 309 kts 315°
2026-05-07 15:49 -13.14614 -76.23280 26074 ft 309 kts 315°
2026-05-07 15:49 -13.13054 -76.24795 26071 ft 309 kts 315°
2026-05-07 15:49 -13.11497 -76.26308 26067 ft 309 kts 316°
2026-05-07 15:49 -13.09926 -76.27833 26065 ft 309 kts 316°
2026-05-07 15:50 -13.08352 -76.29361 26067 ft 309 kts 316°
2026-05-07 15:50 -13.06796 -76.30872 26067 ft 309 kts 316°
2026-05-07 15:50 -13.05243 -76.32379 26060 ft 309 kts 316°
2026-05-07 15:50 -13.03675 -76.33900 26059 ft 309 kts 316°
2026-05-07 15:51 -13.02115 -76.35414 26061 ft 309 kts 316°
2026-05-07 15:51 -13.00535 -76.36947 26060 ft 309 kts 316°
2026-05-07 15:51 -12.98978 -76.38457 26062 ft 309 kts 316°
2026-05-07 15:51 -12.97412 -76.39975 26053 ft 309 kts 316°
2026-05-07 15:52 -12.95866 -76.41474 26054 ft 309 kts 316°
2026-05-07 15:52 -12.94303 -76.42989 26053 ft 309 kts 316°
2026-05-07 15:52 -12.92741 -76.44503 26056 ft 309 kts 316°
2026-05-07 15:52 -12.91179 -76.46016 26054 ft 309 kts 316°
2026-05-07 15:53 -12.89618 -76.47529 26052 ft 309 kts 316°
2026-05-07 15:53 -12.88055 -76.49042 26000 ft 311 kts 316°
2026-05-07 15:53 -12.86469 -76.50577 25815 ft 309 kts 316°
2026-05-07 15:53 -12.84917 -76.52080 25602 ft 310 kts 315°
2026-05-07 15:54 -12.83346 -76.53602 25319 ft 314 kts 315°
2026-05-07 15:54 -12.81737 -76.55159 24974 ft 320 kts 315°
2026-05-07 15:54 -12.80098 -76.56744 24632 ft 325 kts 315°
2026-05-07 15:54 -12.78513 -76.58367 24306 ft 328 kts 310°
2026-05-07 15:55 -12.77092 -76.60208 23971 ft 331 kts 306°
2026-05-07 15:55 -12.75732 -76.62135 23611 ft 335 kts 304°
2026-05-07 15:55 -12.74389 -76.64111 23207 ft 337 kts 304°
2026-05-07 15:55 -12.73105 -76.66137 22790 ft 337 kts 298°
2026-05-07 15:56 -12.72046 -76.68270 22385 ft 337 kts 296°
2026-05-07 15:56 -12.70898 -76.70370 21986 ft 338 kts 298°
2026-05-07 15:56 -12.69795 -76.72485 21591 ft 338 kts 297°
2026-05-07 15:56 -12.68671 -76.74583 21206 ft 337 kts 298°
2026-05-07 15:57 -12.67552 -76.76695 20823 ft 335 kts 297°
2026-05-07 15:57 -12.66445 -76.78779 20446 ft 333 kts 298°
2026-05-07 15:57 -12.65334 -76.80867 20066 ft 331 kts 298°
2026-05-07 15:57 -12.64241 -76.82926 19704 ft 330 kts 298°
2026-05-07 15:58 -12.63145 -76.84987 19340 ft 330 kts 298°
2026-05-07 15:58 -12.62054 -76.87041 18975 ft 329 kts 298°
2026-05-07 15:58 -12.60956 -76.89103 18624 ft 329 kts 298°
2026-05-07 15:58 -12.59869 -76.91148 18267 ft 326 kts 298°
2026-05-07 15:59 -12.58564 -76.93055 17851 ft 323 kts 313°
2026-05-07 15:59 -12.56907 -76.94564 17470 ft 320 kts 324°
2026-05-07 15:59 -12.55087 -76.95851 17095 ft 315 kts 327°
2026-05-07 15:59 -12.53255 -76.97058 16728 ft 312 kts 329°
2026-05-07 16:00 -12.51432 -76.98221 16364 ft 307 kts 329°
2026-05-07 16:00 -12.49587 -76.99267 15999 ft 295 kts 336°
2026-05-07 16:00 -12.47738 -77.00122 15645 ft 288 kts 335°
2026-05-07 16:00 -12.45963 -77.01035 15287 ft 282 kts 335°
2026-05-07 16:01 -12.44227 -77.01892 14984 ft 275 kts 336°
2026-05-07 16:01 -12.42517 -77.02739 14683 ft 268 kts 335°
2026-05-07 16:01 -12.40857 -77.03570 14389 ft 263 kts 335°
2026-05-07 16:01 -12.39236 -77.04374 14098 ft 258 kts 335°
2026-05-07 16:02 -12.37634 -77.05169 13803 ft 255 kts 335°
2026-05-07 16:02 -12.36061 -77.05952 13486 ft 252 kts 335°
2026-05-07 16:02 -12.34476 -77.06739 13153 ft 250 kts 335°
2026-05-07 16:02 -12.32916 -77.07513 12836 ft 248 kts 335°
2026-05-07 16:03 -12.31348 -77.08293 12510 ft 246 kts 335°
2026-05-07 16:03 -12.29817 -77.09053 12198 ft 245 kts 335°
2026-05-07 16:03 -12.28280 -77.09816 11891 ft 248 kts 335°
2026-05-07 16:03 -12.26714 -77.10593 11562 ft 251 kts 335°
2026-05-07 16:04 -12.25139 -77.11375 11261 ft 252 kts 335°
2026-05-07 16:04 -12.23557 -77.12161 10951 ft 253 kts 335°
2026-05-07 16:04 -12.21993 -77.12937 10660 ft 253 kts 335°
2026-05-07 16:04 -12.20405 -77.13726 10358 ft 250 kts 335°
2026-05-07 16:05 -12.18855 -77.14494 10067 ft 248 kts 334°
2026-05-07 16:05 -12.17304 -77.15264 9760 ft 246 kts 334°
2026-05-07 16:05 -12.15785 -77.16017 9432 ft 244 kts 334°
2026-05-07 16:05 -12.14269 -77.16770 9110 ft 240 kts 334°
2026-05-07 16:06 -12.12767 -77.17515 8788 ft 237 kts 334°
2026-05-07 16:06 -12.11308 -77.18238 8476 ft 231 kts 334°
2026-05-07 16:06 -12.09874 -77.18948 8160 ft 225 kts 334°
2026-05-07 16:06 -12.08480 -77.19641 7871 ft 220 kts 334°
2026-05-07 16:07 -12.07123 -77.20313 7585 ft 215 kts 334°
2026-05-07 16:07 -12.05799 -77.20970 7305 ft 210 kts 334°
2026-05-07 16:07 -12.04486 -77.21621 7024 ft 206 kts 334°
2026-05-07 16:07 -12.03218 -77.22252 6751 ft 203 kts 332°
2026-05-07 16:08 -12.02186 -77.23196 6477 ft 199 kts 307°
2026-05-07 16:08 -12.01340 -77.24311 6181 ft 197 kts 306°
2026-05-07 16:08 -12.00511 -77.25427 5886 ft 196 kts 306°
2026-05-07 16:08 -11.99761 -77.26563 5597 ft 194 kts 300°
2026-05-07 16:09 -11.99032 -77.27735 5299 ft 193 kts 313°
2026-05-07 16:09 -11.97960 -77.28540 5071 ft 190 kts 325°
2026-05-07 16:09 -11.96911 -77.29341 4825 ft 187 kts 320°
2026-05-07 16:09 -11.95957 -77.30202 4577 ft 184 kts 316°
2026-05-07 16:10 -11.95057 -77.31129 4349 ft 180 kts 309°
2026-05-07 16:10 -11.94298 -77.32112 4183 ft 174 kts 306°
2026-05-07 16:10 -11.93545 -77.33066 4023 ft 168 kts 309°
2026-05-07 16:10 -11.92787 -77.33980 3904 ft 168 kts 308°
2026-05-07 16:11 -11.92045 -77.34896 3802 ft 170 kts 308°
2026-05-07 16:11 -11.91278 -77.35850 3736 ft 175 kts 308°
2026-05-07 16:11 -11.90504 -77.36811 3680 ft 178 kts 308°
2026-05-07 16:11 -11.89609 -77.37681 3642 ft 180 kts 331°
2026-05-07 16:12 -11.88427 -77.38111 3575 ft 182 kts 351°
2026-05-07 16:12 -11.87156 -77.38191 3526 ft 181 kts 359°
2026-05-07 16:12 -11.85918 -77.38100 3478 ft 180 kts
2026-05-07 16:12 -11.84669 -77.37926 3427 ft 179 kts
2026-05-07 16:13 -11.83457 -77.37679 3345 ft 180 kts 16°
2026-05-07 16:13 -11.82288 -77.37221 3240 ft 180 kts 28°
2026-05-07 16:13 -11.81206 -77.36582 3139 ft 180 kts 36°
2026-05-07 16:13 -11.80239 -77.35784 3052 ft 177 kts 48°
2026-05-07 16:14 -11.79425 -77.34847 2950 ft 174 kts 53°
2026-05-07 16:14 -11.78725 -77.33844 2848 ft 171 kts 66°
2026-05-07 16:14 -11.78249 -77.32760 2782 ft 167 kts 72°
2026-05-07 16:14 -11.77886 -77.31647 2689 ft 163 kts 79°
2026-05-07 16:15 -11.77687 -77.30522 2629 ft 159 kts 89°
2026-05-07 16:15 -11.77661 -77.29400 2568 ft 157 kts 93°
2026-05-07 16:15 -11.77734 -77.28298 2501 ft 154 kts 100°
2026-05-07 16:15 -11.77988 -77.27246 2426 ft 152 kts 111°
2026-05-07 16:16 -11.78347 -77.26232 2364 ft 152 kts 116°
2026-05-07 16:16 -11.78815 -77.25260 2288 ft 151 kts 125°
2026-05-07 16:16 -11.79427 -77.24413 2199 ft 147 kts 130°
2026-05-07 16:16 -11.80094 -77.23651 2114 ft 140 kts 137°
2026-05-07 16:17 -11.80821 -77.22975 2019 ft 142 kts 143°
2026-05-07 16:17 -11.81630 -77.22406 1936 ft 141 kts 148°
2026-05-07 16:17 -11.82429 -77.21874 1857 ft 134 kts 148°
2026-05-07 16:17 -11.83205 -77.21323 1795 ft 139 kts 146°
2026-05-07 16:18 -11.83997 -77.20752 1747 ft 140 kts 147°
2026-05-07 16:18 -11.84800 -77.20192 1719 ft 139 kts 147°
2026-05-07 16:18 -11.85606 -77.19648 1704 ft 138 kts 149°
2026-05-07 16:18 -11.86164 -77.19314 1699 ft 137 kts 153°
2026-05-07 16:19 -11.87016 -77.18904 1698 ft 136 kts 156°
2026-05-07 16:19 -11.88164 -77.18361 1706 ft 137 kts 155°
2026-05-07 16:19 -11.89022 -77.17930 1693 ft 137 kts 155°
2026-05-07 16:19 -11.89592 -77.17636 1695 ft 137 kts 155°
2026-05-07 16:20 -11.90460 -77.17205 1700 ft 141 kts 157°
2026-05-07 16:20 -11.91362 -77.16773 1704 ft 145 kts 156°
2026-05-07 16:20 -11.92288 -77.16321 1699 ft 147 kts 155°
2026-05-07 16:20 -11.93210 -77.15872 1703 ft 148 kts 155°
2026-05-07 16:21 -11.94084 -77.15413 1556 ft 132 kts 155°
2026-05-07 16:21 -11.94879 -77.15017 1404 ft 126 kts 157°
2026-05-07 16:21 -11.95680 -77.14637 1251 ft 128 kts 157°
2026-05-07 16:21 -11.96492 -77.14250 1086 ft 130 kts 156°
2026-05-07 16:22 -11.97293 -77.13845 870 ft 126 kts 155°
2026-05-07 16:22 -11.98074 -77.13427 656 ft 130 kts 155°
2026-05-07 16:22 -11.98872 -77.13022 425 ft 118 kts 156°
2026-05-07 16:22 -11.99611 -77.12668 247 ft 121 kts 159°
2026-05-07 16:23 -12.00377 -77.12314 124 ft 118 kts 156°
2026-05-07 16:23 -12.01098 -77.11961 71 ft 110 kts 159°
2026-05-07 16:23 -12.01658 -77.11697 68 ft 63 kts 151°
2026-05-07 16:23 -12.01995 -77.11525 69 ft 47 kts 154°
2026-05-07 16:24 -12.02246 -77.11403 81 ft 31 kts 154°
2026-05-07 16:24 -12.02416 -77.11322 87 ft 24 kts 161°
2026-05-07 16:24 -12.02487 -77.11242 89 ft 15 kts 92°
2026-05-07 16:24 -12.02478 -77.11208 90 ft 0 kts 63°
2026-05-07 16:25 -12.02464 -77.11179 88 ft 13 kts 63°
2026-05-07 16:25 -12.02413 -77.11114 87 ft 0 kts 326°
2026-05-07 16:26 -12.02399 -77.11120 86 ft 5 kts 359°
2026-05-07 16:26 -12.02297 -77.11101 87 ft 16 kts
2026-05-07 16:26 -12.02201 -77.11103 85 ft 15 kts
2026-05-07 16:26 -12.02116 -77.11058 82 ft 14 kts 63°
2026-05-07 16:27 -12.02072 -77.11039 81 ft 5 kts 340°
2026-05-07 16:27 -12.02057 -77.11045 81 ft 0 kts 338°